[[{"header":{"parameterUnit":"m.s-1","parameterCategory":2,"la1":30.2991,"la2":30.254,"lo1":-89.0895,"lo2":-89.0444,"dy":0.0017,"dx":0.0017,"nx":28,"ny":28,"refTime":"2023-10-11T09:00:00:Z","depth":"0","parameterNumber":2,"parameterNumberName":"U-component_of_CURRENTS"},"data":[0,0,0,0,0,0,0,0,0,0,0,0,0,0,0,0,0,0,0,0,0,0,0,0,0,0,0,0,0,0,0,0,0,0,0,0,0,0,0,0,0,0,0,0,0,0,0,0,0,0,0,0,0,0,0,0,0,0,-0.3261,-0.3261,0,-0.3286,-0.3286,-0.3286,-0.3298,-0.3298,-0.3299,-0.3299,-0.3337,-0.3338,-0.3338,0,0,0,0,0,0,0,0,0,0,0,0,0,-0.3144,-0.3146,-0.326,-0.3261,-0.3262,-0.3286,-0.3286,-0.3286,-0.3298,-0.3298,-0.3299,-0.3299,-0.3337,-0.3337,-0.3338,0,0,0,0,0,0,0,0,0,0,0,0,0,-0.3181,-0.3147,-0.326,-0.3274,-0.3275,-0.3286,-0.3286,-0.3286,-0.3298,-0.3298,-0.3299,-0.3299,-0.3336,-0.3337,-0.3338,-0.3335,0,0,-0.3342,-0.3342,0,0,0,0,0,0,0,0,-0.3179,-0.3185,-0.3271,-0.3273,-0.3275,-0.3293,-0.3259,-0.3304,-0.3298,-0.3285,-0.3299,-0.33,-0.3326,-0.3327,-0.3325,-0.3336,-0.3338,-0.3342,-0.3342,-0.3343,-0.3343,0,0,0,0,0,0,0,-0.3177,-0.3184,-0.3267,-0.3272,-0.3274,-0.3252,-0.3258,-0.3267,-0.3299,-0.3286,-0.3288,-0.3297,-0.3326,-0.3324,-0.3326,-0.3339,-0.3342,-0.3343,-0.3343,-0.3344,-0.3318,-0.3317,0,0,0,0,0,0,-0.3185,-0.3182,-0.3266,-0.3268,-0.3232,-0.3254,-0.3261,-0.3283,-0.3299,-0.3303,-0.3297,-0.3298,-0.3322,-0.3325,-0.3328,-0.3339,-0.3343,-0.3344,-0.3344,-0.3319,-0.3318,-0.3316,0,0,0,0,0,0,-0.3183,-0.3193,-0.3265,-0.3227,-0.3235,-0.3257,-0.3281,-0.3284,-0.3289,-0.3308,-0.3311,-0.3301,-0.3323,-0.3326,-0.3329,-0.334,-0.3344,-0.3345,-0.3321,-0.3319,-0.3317,-0.3351,0,0,0,0,0,0,-0.318,-0.3192,-0.3201,-0.3229,-0.3238,-0.3278,-0.3281,-0.3284,-0.3296,-0.3297,-0.3312,-0.3316,-0.3323,-0.3328,-0.333,-0.3341,-0.3346,-0.3322,-0.332,-0.3317,-0.3352,-0.3351,-0.335,0,0,0,0,0,-0.3176,-0.3192,-0.3202,-0.3211,-0.3254,-0.3279,-0.3281,-0.3294,-0.3295,-0.3299,-0.3299,-0.3316,-0.3314,-0.3328,-0.3331,-0.3343,-0.3324,-0.332,-0.3318,-0.3352,-0.3351,-0.335,0,0,0,0,0,0,-0.3146,-0.3196,-0.3207,-0.3238,-0.3259,-0.3282,-0.3285,-0.3295,-0.3297,-0.3297,-0.3308,-0.3311,-0.3317,-0.3312,-0.3328,-0.332,-0.3318,-0.3315,-0.3342,-0.3341,-0.334,-0.3371,-0.3347,0,0,0,0,0,-0.3145,-0.3168,-0.3209,-0.3229,-0.3243,-0.3262,-0.327,-0.3284,-0.3295,-0.3297,-0.3307,-0.3304,-0.3304,-0.331,-0.3308,-0.3312,-0.3331,-0.3313,-0.3312,-0.3312,-0.3334,-0.3359,-0.3364,-0.3306,-0.3306,-0.3307,0,0,-0.3135,-0.3167,-0.3178,-0.3223,-0.3237,-0.3262,-0.3268,-0.3287,-0.3304,-0.3301,-0.3313,-0.3307,-0.3302,-0.3304,-0.3305,-0.3306,-0.3334,-0.3308,-0.3308,-0.3332,-0.3357,-0.3363,-0.3369,-0.3304,-0.3305,-0.3305,0,0,-0.3134,-0.316,-0.3181,-0.3204,-0.3238,-0.3255,-0.3264,-0.3291,-0.3299,-0.3308,-0.3307,-0.331,-0.3304,-0.3314,-0.3314,-0.3304,-0.3328,-0.3286,-0.3317,-0.334,-0.3347,-0.3353,-0.3382,-0.339,-0.3288,-0.3288,-0.3288,0,-0.3119,-0.3164,-0.3187,-0.3216,-0.3238,-0.3256,-0.3284,-0.3293,-0.3315,-0.3329,-0.3313,-0.3318,-0.3316,-0.3336,-0.3327,-0.331,-0.3323,-0.3331,-0.3345,-0.3351,-0.3357,-0.3385,-0.3394,-0.3289,-0.3289,-0.3289,-0.3289,0,-0.314,-0.3174,-0.3187,-0.3235,-0.3255,-0.3281,-0.331,-0.3326,-0.3332,-0.3346,-0.3362,-0.3351,-0.3359,-0.3347,-0.3337,-0.3368,-0.3364,-0.3345,-0.3362,-0.3366,-0.3394,-0.3403,-0.3291,-0.329,-0.329,-0.329,0,0,-0.3114,-0.319,-0.3193,-0.3221,-0.3273,-0.3291,-0.3325,-0.3367,-0.34,-0.3394,-0.3435,-0.3418,-0.3416,-0.3414,-0.3401,-0.3419,-0.3462,-0.3399,-0.3399,-0.3454,-0.352,-0.363,-0.3649,-0.3446,-0.3447,-0.3448,-0.3525,0,-0.3125,-0.3181,-0.322,-0.3265,-0.3296,-0.3334,-0.3369,-0.3404,-0.3428,-0.3467,-0.3462,-0.3478,-0.3438,-0.3442,-0.3455,-0.3463,-0.3486,-0.3444,-0.3487,-0.3489,-0.3607,-0.3664,-0.378,-0.3868,-0.3533,-0.3535,-0.3536,0,-0.3135,-0.3174,-0.3223,-0.3299,-0.3317,-0.3342,-0.3411,-0.3444,-0.3504,-0.3522,-0.3543,-0.3547,-0.357,-0.3528,-0.3563,-0.3535,-0.3535,-0.3538,-0.354,-0.3645,-0.3616,-0.3807,-0.3897,-0.3923,-0.3549,-0.3548,-0.3547,0,-0.3099,-0.3177,-0.3215,-0.3237,-0.3319,-0.3347,-0.3386,-0.3455,-0.3498,-0.3553,-0.3596,-0.3615,-0.3635,-0.3634,-0.3645,-0.36,-0.3701,-0.3634,-0.3737,-0.3743,-0.3857,-0.3872,-0.4007,-0.3673,-0.3673,-0.3673,-0.3673,0,-0.3098,-0.3122,-0.3198,-0.3214,-0.326,-0.3324,-0.3382,-0.3428,-0.3517,-0.3591,-0.361,-0.3686,-0.3663,-0.372,-0.3696,-0.3777,-0.3741,-0.3781,-0.3788,-0.3869,-0.3884,-0.3922,-0.3891,-0.3676,-0.3675,-0.3675,-0.3674,0,-0.3033,-0.3096,-0.3132,-0.3214,-0.3241,-0.3259,-0.3363,-0.341,-0.3504,-0.3608,-0.3628,-0.374,-0.384,-0.385,-0.3884,-0.3872,-0.3929,-0.3943,-0.4052,-0.4073,-0.4187,-0.4152,-0.4185,-0.4123,-0.4067,-0.407,-0.4073,0,-0.3001,-0.3013,-0.3093,-0.3103,-0.3132,-0.3186,-0.3232,-0.3362,-0.3428,-0.366,-0.3706,-0.3868,-0.4016,-0.4136,-0.4183,-0.4229,-0.4094,-0.429,-0.4231,-0.4261,-0.4225,-0.4079,-0.401,-0.4376,-0.4382,-0.4386,-0.4389,0,-0.2905,-0.2932,-0.295,-0.2992,-0.3033,-0.3103,-0.3188,-0.3277,-0.3466,-0.3628,-0.3891,-0.406,-0.4279,-0.4476,-0.4539,-0.4505,-0.4297,-0.4379,-0.4383,-0.4486,-0.4364,-0.4286,-0.4243,-0.4427,-0.4423,-0.442,-0.4418,-0.4417,-0.2798,-0.2779,-0.2811,-0.2848,-0.2913,-0.3019,-0.308,-0.3279,-0.3485,-0.3858,-0.4033,-0.4473,-0.4699,-0.4876,-0.4835,-0.4866,-0.4618,-0.4759,-0.4715,-0.4562,-0.452,-0.458,-0.4786,-0.4785,-0.4783,-0.4782,-0.4781,0,-0.2646,-0.2649,-0.2664,-0.2741,-0.2802,-0.2872,-0.3039,-0.315,-0.3452,-0.3995,-0.4355,-0.5054,-0.5241,-0.5362,-0.5447,-0.5283,-0.5036,-0.5075,-0.4899,-0.4804,-0.4884,-0.4921,-0.5202,-0.5202,-0.5202,-0.5202,-0.5202,-0.5201,-0.2555,-0.2511,-0.2541,-0.2609,-0.2675,-0.2736,-0.2826,-0.3074,-0.344,-0.4212,-0.4909,-0.546,-0.548,-0.5964,-0.5829,-0.5558,-0.5279,-0.5144,-0.4959,-0.5071,-0.5036,-0.5002,-0.5033,-0.5332,-0.5332,-0.4851,-0.4849,-0.4846]},{"header":{"parameterUnit":"m.s-1","parameterCategory":2,"la1":30.2991,"la2":30.254,"lo1":-89.0895,"lo2":-89.0444,"dy":0.0017,"dx":0.0017,"nx":28,"ny":28,"refTime":"2023-10-11T09:00:00:Z","depth":"0","parameterNumber":3,"parameterNumberName":"V-component_of_CURRENTS"},"data":[0,0,0,0,0,0,0,0,0,0,0,0,0,0,0,0,0,0,0,0,0,0,0,0,0,0,0,0,0,0,0,0,0,0,0,0,0,0,0,0,0,0,0,0,0,0,0,0,0,0,0,0,0,0,0,0,0,0,-0.0601,-0.0598,0,-0.0346,-0.0343,-0.0341,-0.0209,-0.0209,-0.0208,-0.0207,-0.0086,-0.0083,-0.008,0,0,0,0,0,0,0,0,0,0,0,0,0,-0.0757,-0.0756,-0.0601,-0.0597,-0.0594,-0.0346,-0.0343,-0.034,-0.0209,-0.0208,-0.0208,-0.0207,-0.0086,-0.0083,-0.008,0,0,0,0,0,0,0,0,0,0,0,0,0,-0.0619,-0.0756,-0.0602,-0.0496,-0.0483,-0.0347,-0.0343,-0.0339,-0.0209,-0.0208,-0.0208,-0.0207,-0.0087,-0.0083,-0.0079,-0.007,0,0,-0.0067,-0.0065,0,0,0,0,0,0,0,0,-0.0627,-0.0614,-0.0515,-0.0503,-0.0488,-0.0305,-0.0353,-0.0254,-0.0209,-0.0318,-0.0207,-0.0207,-0.0169,-0.0158,-0.0116,-0.0064,-0.0059,-0.0066,-0.0064,-0.0062,-0.0061,0,0,0,0,0,0,0,-0.0637,-0.0623,-0.0504,-0.0511,-0.0495,-0.0386,-0.0368,-0.0332,-0.0257,-0.0308,-0.0297,-0.0262,-0.0163,-0.012,-0.0113,-0.0057,-0.0067,-0.0063,-0.006,-0.0059,0.0009,0.0009,0,0,0,0,0,0,-0.0673,-0.0634,-0.0512,-0.0496,-0.0552,-0.0384,-0.0364,-0.0368,-0.0254,-0.0233,-0.0263,-0.0257,-0.0128,-0.0117,-0.0108,-0.0085,-0.0062,-0.0058,-0.0056,0.001,0.0009,0.0008,0,0,0,0,0,0,-0.0678,-0.0666,-0.0522,-0.0553,-0.0526,-0.0384,-0.0388,-0.0363,-0.0315,-0.0217,-0.02,-0.0239,-0.0127,-0.0114,-0.0075,-0.008,-0.0057,-0.0053,0.0011,0.001,0.0009,-0.0045,0,0,0,0,0,0,-0.0684,-0.0671,-0.0679,-0.0557,-0.0526,-0.0448,-0.0387,-0.0359,-0.0293,-0.0282,-0.0192,-0.0179,-0.0125,-0.0082,-0.0071,-0.0074,-0.005,0.0012,0.001,0.0009,-0.0042,-0.0048,-0.0052,0,0,0,0,0,-0.0691,-0.071,-0.0682,-0.0666,-0.0547,-0.0448,-0.0423,-0.0319,-0.0293,-0.0274,-0.0215,-0.0181,-0.0083,-0.0079,-0.0066,-0.0068,0.0012,0.0011,0.0009,-0.004,-0.0046,-0.0052,0,0,0,0,0,0,-0.0764,-0.0694,-0.0662,-0.0654,-0.0561,-0.0424,-0.0391,-0.0329,-0.0263,-0.0262,-0.0184,-0.0167,-0.0134,-0.0102,-0.01,-0.0055,-0.0033,-0.0032,-0.0075,-0.008,-0.0085,-0.0095,-0.0046,0,0,0,0,0,-0.0792,-0.0798,-0.0692,-0.068,-0.0646,-0.0525,-0.0471,-0.0405,-0.0326,-0.0293,-0.0229,-0.0176,-0.0131,-0.0107,-0.0062,-0.004,-0.0009,-0.0036,-0.0041,-0.0046,-0.0047,-0.0017,-0.002,0.0004,0.0004,0.0004,0,0,-0.0811,-0.0772,-0.0771,-0.0696,-0.0621,-0.0568,-0.0492,-0.0422,-0.0376,-0.0297,-0.0239,-0.019,-0.013,-0.0093,-0.0078,-0.0067,-0.0035,-0.0048,-0.0051,-0.005,-0.0019,-0.0021,-0.0023,0.0003,0.0003,0.0003,0,0,-0.0845,-0.0827,-0.0836,-0.0773,-0.0675,-0.0601,-0.0591,-0.047,-0.042,-0.0359,-0.0295,-0.0252,-0.0179,-0.0128,-0.0097,-0.0109,-0.0062,-0.0102,-0.0131,-0.0102,-0.0104,-0.0105,-0.0064,-0.006,-0.0104,-0.0104,-0.0105,0,-0.0865,-0.0867,-0.0813,-0.079,-0.0737,-0.0629,-0.06,-0.0532,-0.0411,-0.038,-0.0357,-0.0242,-0.0194,-0.0142,-0.0139,-0.0119,-0.0092,-0.0111,-0.0108,-0.0109,-0.0109,-0.0066,-0.0062,-0.0107,-0.0107,-0.0107,-0.0106,0,-0.0891,-0.0883,-0.0878,-0.0829,-0.077,-0.0726,-0.0627,-0.0579,-0.0518,-0.0442,-0.0381,-0.0305,-0.0237,-0.0219,-0.0178,-0.0152,-0.0129,-0.0118,-0.0093,-0.0114,-0.0068,-0.0063,-0.0111,-0.011,-0.0109,-0.0109,0,0,-0.0959,-0.0911,-0.0908,-0.0889,-0.0789,-0.0743,-0.069,-0.0604,-0.0572,-0.0479,-0.0434,-0.0352,-0.0307,-0.0271,-0.0216,-0.0187,-0.0159,-0.0157,-0.0154,-0.0115,-0.0086,-0.0009,0.0005,-0.0149,-0.0148,-0.0148,-0.0052,0,-0.0986,-0.0983,-0.0937,-0.0904,-0.0886,-0.0788,-0.0748,-0.0662,-0.0585,-0.0521,-0.044,-0.038,-0.0328,-0.0301,-0.0262,-0.018,-0.0149,-0.0185,-0.0072,-0.0068,0.0004,0.0012,0.0055,0.015,-0.0046,-0.0045,-0.0045,0,-0.1022,-0.1015,-0.1012,-0.0956,-0.0939,-0.0903,-0.0823,-0.0768,-0.0662,-0.0607,-0.053,-0.045,-0.0371,-0.0342,-0.0214,-0.024,-0.0172,-0.0114,-0.0109,-0.0014,0.0019,0.0138,0.0168,0.0382,-0.0036,-0.0036,-0.0037,0,-0.1102,-0.1062,-0.1072,-0.1046,-0.0971,-0.0953,-0.0905,-0.0805,-0.0768,-0.0662,-0.0625,-0.051,-0.0456,-0.0357,-0.0212,-0.0218,-0.0077,-0.0072,0.0062,0.0069,0.0141,0.0153,0.0392,-0.0003,-0.0004,-0.0004,-0.0004,0,-0.1154,-0.1153,-0.1117,-0.1117,-0.1123,-0.1035,-0.1018,-0.0952,-0.0866,-0.0838,-0.0685,-0.0637,-0.0462,-0.0343,-0.0227,-0.0048,-0.0085,0.0068,0.0101,0.0125,0.0134,0.0353,0.0456,-0.0,-0.0001,-0.0002,-0.0002,0,-0.1236,-0.1212,-0.1222,-0.1177,-0.1166,-0.1174,-0.1107,-0.11,-0.0992,-0.0951,-0.0922,-0.0734,-0.0564,-0.0371,-0.0193,-0.0063,0.0212,0.0155,0.0186,0.0222,0.0555,0.0652,0.0919,0.0911,0.0325,0.0327,0.033,0,-0.1279,-0.1298,-0.1294,-0.1318,-0.1303,-0.1293,-0.1299,-0.1194,-0.118,-0.1017,-0.1018,-0.0812,-0.0681,-0.034,-0.0055,0.0203,0.0312,0.0383,0.038,0.06,0.0732,0.079,0.0763,0.0454,0.0457,0.046,0.0462,0,-0.1356,-0.1362,-0.1378,-0.1443,-0.1467,-0.1493,-0.1481,-0.1487,-0.1369,-0.1307,-0.1207,-0.1077,-0.0655,-0.029,0.0117,0.0258,0.0539,0.0442,0.0657,0.0856,0.0946,0.0944,0.0373,0.0483,0.0481,0.048,0.0478,0.0478,-0.1415,-0.146,-0.1501,-0.1571,-0.1622,-0.1707,-0.1775,-0.1739,-0.1734,-0.1666,-0.1416,-0.1175,-0.0473,0.0132,0.031,0.0832,0.0733,0.0949,0.1048,0.1085,0.1095,0.0587,0.0742,0.0741,0.0741,0.074,0.074,0,-0.1481,-0.1542,-0.1621,-0.1738,-0.1878,-0.1843,-0.1919,-0.2008,-0.2064,-0.1843,-0.1706,-0.0825,-0.0193,0.0439,0.1276,0.148,0.1401,0.1542,0.1634,0.1563,0.1122,0.1145,0.141,0.141,0.141,0.1409,0.1409,0.1409,-0.1516,-0.1617,-0.1681,-0.1956,-0.2057,-0.2261,-0.2341,-0.2428,-0.233,-0.2031,-0.1508,-0.1053,0.0218,0.1712,0.2322,0.2207,0.2249,0.2227,0.2222,0.1974,0.1925,0.1879,0.1927,0.2351,0.2352,0.2572,0.2576,0.2579]}],[{"header":{"parameterUnit":"m.s-1","parameterCategory":2,"la1":30.2991,"la2":30.254,"lo1":-89.0895,"lo2":-89.0444,"dy":0.0017,"dx":0.0017,"nx":28,"ny":28,"refTime":"2023-10-11T09:00:00:Z","depth":"2","parameterNumber":2,"parameterNumberName":"U-component_of_CURRENTS"},"data":[0,0,0,0,0,0,0,0,0,0,0,0,0,0,0,0,0,0,0,0,0,0,0,0,0,0,0,0,0,0,0,0,0,0,0,0,0,0,0,0,0,0,0,0,0,0,0,0,0,0,0,0,0,0,0,0,0,0,-0.3228,-0.3228,0,-0.3253,-0.3253,-0.3253,-0.3265,-0.3265,-0.3266,-0.3266,-0.3302,-0.3302,-0.3303,0,0,0,0,0,0,0,0,0,0,0,0,0,-0.3112,-0.3114,-0.3228,-0.3229,-0.3229,-0.3253,-0.3253,-0.3253,-0.3265,-0.3265,-0.3266,-0.3266,-0.3301,-0.3302,-0.3303,0,0,0,0,0,0,0,0,0,0,0,0,0,-0.3149,-0.3115,-0.3228,-0.3241,-0.3243,-0.3253,-0.3253,-0.3253,-0.3265,-0.3265,-0.3266,-0.3266,-0.3301,-0.3302,-0.3303,-0.3298,0,0,-0.3306,-0.3306,0,0,0,0,0,0,0,0,-0.3147,-0.3152,-0.3238,-0.324,-0.3242,-0.326,-0.3226,-0.327,-0.3265,-0.3252,-0.3266,-0.3267,-0.3291,-0.3293,-0.329,-0.33,-0.3302,-0.3306,-0.3307,-0.3307,-0.3307,0,0,0,0,0,0,0,-0.3144,-0.3151,-0.3234,-0.3239,-0.3241,-0.3219,-0.3225,-0.3233,-0.3265,-0.3253,-0.3255,-0.3264,-0.3292,-0.3289,-0.3292,-0.3302,-0.3306,-0.3307,-0.3307,-0.3308,-0.3282,-0.3281,0,0,0,0,0,0,-0.3153,-0.3149,-0.3233,-0.3235,-0.3199,-0.3222,-0.3228,-0.325,-0.3265,-0.3269,-0.3264,-0.3265,-0.3288,-0.329,-0.3293,-0.3304,-0.3307,-0.3308,-0.3308,-0.3283,-0.3282,-0.3281,0,0,0,0,0,0,-0.3151,-0.3161,-0.3232,-0.3195,-0.3203,-0.3224,-0.3248,-0.3251,-0.3257,-0.3274,-0.3277,-0.3269,-0.3288,-0.3292,-0.3295,-0.3305,-0.3308,-0.3309,-0.3285,-0.3283,-0.3281,-0.3317,0,0,0,0,0,0,-0.3147,-0.316,-0.3169,-0.3196,-0.3206,-0.3245,-0.3248,-0.3251,-0.3263,-0.3265,-0.3279,-0.3282,-0.3289,-0.3293,-0.3295,-0.3307,-0.331,-0.3287,-0.3284,-0.3282,-0.3317,-0.3317,-0.3316,0,0,0,0,0,-0.3143,-0.316,-0.317,-0.3179,-0.3221,-0.3246,-0.3248,-0.3261,-0.3263,-0.3267,-0.3267,-0.3282,-0.3279,-0.3293,-0.3296,-0.3308,-0.3288,-0.3285,-0.3282,-0.3318,-0.3317,-0.3316,0,0,0,0,0,0,-0.3114,-0.3164,-0.3175,-0.3206,-0.3227,-0.325,-0.3253,-0.3263,-0.3265,-0.3265,-0.3275,-0.3278,-0.3284,-0.3279,-0.3293,-0.3286,-0.3283,-0.328,-0.3308,-0.3308,-0.3307,-0.3337,-0.3311,0,0,0,0,0,-0.3113,-0.3136,-0.3177,-0.3197,-0.3211,-0.323,-0.3239,-0.3253,-0.3264,-0.3266,-0.3274,-0.3272,-0.3272,-0.3277,-0.3275,-0.3278,-0.3297,-0.328,-0.3279,-0.3279,-0.3301,-0.3325,-0.3331,-0.3271,-0.3271,-0.3272,0,0,-0.3104,-0.3135,-0.3146,-0.3191,-0.3206,-0.3231,-0.3236,-0.3255,-0.3273,-0.3269,-0.3282,-0.3275,-0.3269,-0.3272,-0.3273,-0.3273,-0.3301,-0.3275,-0.3276,-0.3298,-0.3323,-0.333,-0.3336,-0.327,-0.327,-0.327,0,0,-0.3102,-0.3129,-0.315,-0.3173,-0.3208,-0.3224,-0.3233,-0.3261,-0.3269,-0.3278,-0.3276,-0.3281,-0.3274,-0.3283,-0.3283,-0.3274,-0.3297,-0.3257,-0.3288,-0.3311,-0.3318,-0.3324,-0.3353,-0.3362,-0.3258,-0.3258,-0.3258,0,-0.3088,-0.3132,-0.3155,-0.3185,-0.3207,-0.3225,-0.3253,-0.3263,-0.3285,-0.3299,-0.3284,-0.3288,-0.3286,-0.3306,-0.3297,-0.3281,-0.3293,-0.33,-0.3316,-0.3322,-0.3328,-0.3357,-0.3366,-0.3259,-0.3259,-0.3259,-0.3259,0,-0.3109,-0.3143,-0.3156,-0.3204,-0.3225,-0.325,-0.328,-0.3296,-0.3302,-0.3317,-0.3333,-0.3322,-0.3331,-0.3319,-0.3309,-0.334,-0.3336,-0.3317,-0.3332,-0.3337,-0.3365,-0.3374,-0.3261,-0.3261,-0.3261,-0.326,0,0,-0.3084,-0.3159,-0.3162,-0.3191,-0.3242,-0.3261,-0.3295,-0.3337,-0.3371,-0.3366,-0.3406,-0.3389,-0.3388,-0.3386,-0.3373,-0.3391,-0.3435,-0.3371,-0.3371,-0.3425,-0.3494,-0.3601,-0.3621,-0.3419,-0.342,-0.3422,-0.3498,0,-0.3094,-0.3151,-0.319,-0.3234,-0.3266,-0.3304,-0.3339,-0.3374,-0.3399,-0.3438,-0.3433,-0.345,-0.341,-0.3414,-0.3428,-0.3436,-0.346,-0.3417,-0.3459,-0.3461,-0.3578,-0.3636,-0.3188,-0.323,-0.3507,-0.3508,-0.3509,0,-0.3105,-0.3144,-0.3193,-0.3268,-0.3286,-0.3312,-0.3381,-0.3414,-0.3474,-0.3492,-0.3514,-0.3518,-0.3542,-0.3501,-0.3536,-0.3508,-0.3509,-0.3511,-0.3513,-0.3616,-0.3587,-0.3266,-0.3235,-0.3524,-0.3523,-0.3522,-0.3521,0,-0.3069,-0.3148,-0.3185,-0.3207,-0.3289,-0.3316,-0.3356,-0.3425,-0.3468,-0.3524,-0.3567,-0.3586,-0.3607,-0.3606,-0.3618,-0.3573,-0.3674,-0.3608,-0.3709,-0.3715,-0.3349,-0.3324,-0.3647,-0.3647,-0.3647,-0.3647,-0.3647,0,-0.3069,-0.3093,-0.3169,-0.3185,-0.3231,-0.3294,-0.3352,-0.3399,-0.3487,-0.3561,-0.3581,-0.3656,-0.3635,-0.3692,-0.3669,-0.375,-0.3714,-0.3753,-0.376,-0.335,-0.3326,-0.3584,-0.3576,-0.365,-0.3649,-0.3649,-0.3648,0,-0.3004,-0.3067,-0.3103,-0.3185,-0.3211,-0.323,-0.3334,-0.338,-0.3474,-0.3578,-0.3598,-0.371,-0.381,-0.3821,-0.3856,-0.3844,-0.3884,-0.3915,-0.3462,-0.3419,-0.3887,-0.3878,-0.4029,-0.4033,-0.4038,-0.4041,-0.4044,0,-0.2972,-0.2984,-0.3064,-0.3075,-0.3103,-0.3157,-0.3203,-0.3332,-0.3398,-0.3628,-0.3674,-0.3836,-0.3954,-0.4076,-0.3956,-0.3954,-0.405,-0.3674,-0.3538,-0.3944,-0.3934,-0.3919,-0.3906,-0.3022,-0.3016,-0.3011,-0.3008,0,-0.2877,-0.2903,-0.2922,-0.2963,-0.3005,-0.3074,-0.3159,-0.3246,-0.3434,-0.357,-0.383,-0.397,-0.4032,-0.3862,-0.386,-0.3783,-0.3639,-0.3598,-0.4082,-0.3068,-0.3022,-0.3005,-0.3017,-0.2966,-0.297,-0.2973,-0.2975,-0.2977,-0.277,-0.2752,-0.2784,-0.282,-0.2885,-0.2989,-0.3049,-0.314,-0.3307,-0.3472,-0.3763,-0.3852,-0.3754,-0.3583,-0.3431,-0.3279,-0.3524,-0.3362,-0.3362,-0.3369,-0.3314,-0.3285,-0.3265,-0.3271,-0.3276,-0.328,-0.3284,0,-0.2584,-0.2622,-0.2637,-0.2713,-0.2727,-0.2843,-0.3007,-0.2971,-0.31,-0.3296,-0.3467,-0.3198,-0.3114,-0.3088,-0.2737,-0.2723,-0.2496,-0.2685,-0.2322,-0.2367,-0.2406,-0.2287,-0.1974,-0.1971,-0.1968,-0.1965,0,0,-0.2484,-0.2422,-0.2451,-0.2491,-0.2589,-0.2573,-0.266,-0.2636,-0.2686,-0.2698,-0.2784,-0.3039,-0.3092,-0.2566,-0.2369,-0.2162,-0.2252,-0.2057,-0.3091,-0.2711,-0.2748,-0.2769,-0.264,0,0,0,0,0]},{"header":{"parameterUnit":"m.s-1","parameterCategory":2,"la1":30.2991,"la2":30.254,"lo1":-89.0895,"lo2":-89.0444,"dy":0.0017,"dx":0.0017,"nx":28,"ny":28,"refTime":"2023-10-11T09:00:00:Z","depth":"2","parameterNumber":3,"parameterNumberName":"V-component_of_CURRENTS"},"data":[0,0,0,0,0,0,0,0,0,0,0,0,0,0,0,0,0,0,0,0,0,0,0,0,0,0,0,0,0,0,0,0,0,0,0,0,0,0,0,0,0,0,0,0,0,0,0,0,0,0,0,0,0,0,0,0,0,0,-0.0564,-0.0561,0,-0.031,-0.0308,-0.0305,-0.0174,-0.0174,-0.0173,-0.0173,-0.005,-0.0047,-0.0044,0,0,0,0,0,0,0,0,0,0,0,0,0,-0.0719,-0.0719,-0.0565,-0.0561,-0.0557,-0.0311,-0.0308,-0.0305,-0.0174,-0.0174,-0.0173,-0.0172,-0.005,-0.0047,-0.0044,0,0,0,0,0,0,0,0,0,0,0,0,0,-0.0582,-0.0719,-0.0565,-0.046,-0.0447,-0.0311,-0.0308,-0.0304,-0.0174,-0.0173,-0.0173,-0.0172,-0.0052,-0.0047,-0.0043,-0.0033,0,0,-0.0031,-0.0029,0,0,0,0,0,0,0,0,-0.059,-0.0577,-0.0479,-0.0467,-0.0453,-0.027,-0.0316,-0.0218,-0.0174,-0.0282,-0.0173,-0.0172,-0.0133,-0.0122,-0.008,-0.0027,-0.0022,-0.003,-0.0028,-0.0026,-0.0025,0,0,0,0,0,0,0,-0.06,-0.0586,-0.0468,-0.0475,-0.0459,-0.035,-0.0332,-0.0296,-0.0221,-0.0273,-0.0262,-0.0227,-0.0128,-0.0084,-0.0077,-0.002,-0.003,-0.0027,-0.0024,-0.0022,0.0046,0.0046,0,0,0,0,0,0,-0.0636,-0.0597,-0.0476,-0.046,-0.0516,-0.0349,-0.0329,-0.0332,-0.0218,-0.0197,-0.0228,-0.0222,-0.0092,-0.0082,-0.0072,-0.005,-0.0026,-0.0022,-0.002,0.0047,0.0046,0.0045,0,0,0,0,0,0,-0.0641,-0.0629,-0.0486,-0.0516,-0.049,-0.0348,-0.0352,-0.0328,-0.028,-0.0182,-0.0165,-0.0205,-0.0091,-0.0078,-0.0039,-0.0045,-0.002,-0.0016,0.0048,0.0047,0.0046,-0.0009,0,0,0,0,0,0,-0.0647,-0.0634,-0.0642,-0.0521,-0.049,-0.0413,-0.0352,-0.0323,-0.0258,-0.0247,-0.0157,-0.0143,-0.0089,-0.0046,-0.0035,-0.0038,-0.0013,0.0049,0.0047,0.0046,-0.0006,-0.0011,-0.0016,0,0,0,0,0,-0.0654,-0.0673,-0.0646,-0.0629,-0.051,-0.0412,-0.0387,-0.0283,-0.0258,-0.0239,-0.018,-0.0146,-0.0047,-0.0043,-0.003,-0.0032,0.0049,0.0048,0.0046,-0.0004,-0.001,-0.0016,0,0,0,0,0,0,-0.0727,-0.0657,-0.0625,-0.0618,-0.0525,-0.0389,-0.0355,-0.0294,-0.0228,-0.0227,-0.0149,-0.0132,-0.0099,-0.0066,-0.0064,-0.0019,0.0004,0.0005,-0.0039,-0.0044,-0.0049,-0.0059,-0.001,0,0,0,0,0,-0.0755,-0.0761,-0.0655,-0.0643,-0.061,-0.0489,-0.0435,-0.037,-0.0291,-0.0258,-0.0194,-0.014,-0.0095,-0.0072,-0.0026,-0.0004,0.0027,-0.0,-0.0005,-0.001,-0.0011,0.0019,0.0016,0.004,0.004,0.004,0,0,-0.0774,-0.0736,-0.0734,-0.0659,-0.0585,-0.0532,-0.0457,-0.0387,-0.0341,-0.0262,-0.0204,-0.0155,-0.0094,-0.0058,-0.0042,-0.0031,0.0,-0.0012,-0.0016,-0.0014,0.0017,0.0015,0.0013,0.0039,0.004,0.004,0,0,-0.0808,-0.079,-0.08,-0.0737,-0.0639,-0.0566,-0.0556,-0.0435,-0.0385,-0.0325,-0.026,-0.0218,-0.0144,-0.0093,-0.0062,-0.0075,-0.0027,-0.0067,-0.0096,-0.0068,-0.0069,-0.007,-0.0029,-0.0026,-0.007,-0.007,-0.007,0,-0.0828,-0.083,-0.0777,-0.0754,-0.0701,-0.0594,-0.0565,-0.0497,-0.0377,-0.0345,-0.0323,-0.0208,-0.0159,-0.0107,-0.0105,-0.0085,-0.0058,-0.0076,-0.0074,-0.0074,-0.0074,-0.0032,-0.0028,-0.0073,-0.0072,-0.0072,-0.0072,0,-0.0854,-0.0846,-0.0842,-0.0793,-0.0734,-0.0691,-0.0592,-0.0545,-0.0484,-0.0408,-0.0347,-0.0271,-0.0203,-0.0185,-0.0144,-0.0118,-0.0095,-0.0084,-0.0058,-0.008,-0.0034,-0.0029,-0.0077,-0.0076,-0.0075,-0.0074,0,0,-0.0922,-0.0875,-0.0872,-0.0853,-0.0754,-0.0707,-0.0655,-0.0569,-0.0538,-0.0445,-0.04,-0.0318,-0.0274,-0.0237,-0.0182,-0.0153,-0.0126,-0.0123,-0.012,-0.0082,-0.0053,0.0023,0.0037,-0.0115,-0.0115,-0.0115,-0.0019,0,-0.0949,-0.0947,-0.0901,-0.0868,-0.0851,-0.0753,-0.0713,-0.0627,-0.0551,-0.0487,-0.0406,-0.0347,-0.0294,-0.0268,-0.0229,-0.0147,-0.0115,-0.0152,-0.0038,-0.0035,0.0036,0.0044,0.0053,0.0144,-0.0013,-0.0013,-0.0012,0,-0.0986,-0.098,-0.0977,-0.092,-0.0903,-0.0868,-0.0788,-0.0734,-0.0627,-0.0573,-0.0496,-0.0417,-0.0338,-0.0309,-0.0181,-0.0207,-0.014,-0.0081,-0.0076,0.0018,0.0052,0.0139,0.016,-0.0002,-0.0003,-0.0004,-0.0004,0,-0.1066,-0.1026,-0.1036,-0.1011,-0.0936,-0.0918,-0.087,-0.077,-0.0734,-0.0628,-0.0592,-0.0476,-0.0423,-0.0324,-0.0179,-0.0186,-0.0045,-0.004,0.0094,0.0101,0.0143,0.0153,0.0029,0.0029,0.0029,0.0029,0.0028,0,-0.1118,-0.1118,-0.1082,-0.1082,-0.1088,-0.1,-0.0984,-0.0918,-0.0832,-0.0804,-0.0652,-0.0603,-0.0429,-0.0311,-0.0194,-0.0016,-0.0053,0.0099,0.0132,0.0126,0.0133,0.003,0.0029,0.0032,0.0031,0.0031,0.003,0,-0.1201,-0.1177,-0.1187,-0.1142,-0.1132,-0.1139,-0.1073,-0.1066,-0.0959,-0.0918,-0.0889,-0.0701,-0.0532,-0.0339,-0.0161,-0.0031,0.0123,0.0186,0.0182,0.0214,0.0252,0.0246,0.0348,0.0352,0.0355,0.0357,0.0359,0,-0.1244,-0.1263,-0.126,-0.1284,-0.1268,-0.1259,-0.1265,-0.116,-0.1146,-0.0983,-0.0984,-0.078,-0.0644,-0.0303,-0.0015,0.0244,0.0189,0.0376,0.0369,0.0263,0.0285,0.0275,0.0266,0.0402,0.0405,0.0406,0.0408,0,-0.1321,-0.1328,-0.1343,-0.1409,-0.1432,-0.1458,-0.1447,-0.1453,-0.1335,-0.1263,-0.1165,-0.1029,-0.0608,-0.0263,0.0143,0.0281,0.0346,0.0425,0.0313,0.0325,0.0324,0.0342,0.0329,0.0425,0.0423,0.0422,0.0421,0.042,-0.1381,-0.1426,-0.1466,-0.1536,-0.1587,-0.1671,-0.1739,-0.1661,-0.1642,-0.1535,-0.135,-0.1114,-0.066,-0.0087,0.0258,0.0563,0.0514,0.056,0.055,0.0538,0.0532,0.0537,0.0677,0.0677,0.0677,0.0677,0.0677,0,-0.1408,-0.1507,-0.1586,-0.1702,-0.1796,-0.1808,-0.1883,-0.1881,-0.1869,-0.1706,-0.1552,-0.1061,-0.0549,-0.0112,0.0436,0.0761,0.0732,0.077,0.0683,0.0665,0.065,0.0645,0.0823,0.0824,0.0825,0.0826,0,0,-0.1432,-0.1514,-0.1578,-0.1828,-0.1964,-0.2094,-0.217,-0.2132,-0.2023,-0.1867,-0.1676,-0.1303,-0.0664,-0.0247,0.0228,0.052,0.0464,0.0527,0.0375,0.0195,0.0174,0.0503,0.0475,0,0,0,0,0]}],[{"header":{"parameterUnit":"m.s-1","parameterCategory":2,"la1":30.2991,"la2":30.254,"lo1":-89.0895,"lo2":-89.0444,"dy":0.0017,"dx":0.0017,"nx":28,"ny":28,"refTime":"2023-10-11T09:00:00:Z","depth":"4","parameterNumber":2,"parameterNumberName":"U-component_of_CURRENTS"},"data":[0,0,0,0,0,0,0,0,0,0,0,0,0,0,0,0,0,0,0,0,0,0,0,0,0,0,0,0,0,0,0,0,0,0,0,0,0,0,0,0,0,0,0,0,0,0,0,0,0,0,0,0,0,0,0,0,0,0,-0.1654,-0.1654,0,-0.172,-0.1721,-0.1721,-0.178,-0.1781,-0.1782,-0.1783,-0.1869,-0.1871,-0.1872,0,0,0,0,0,0,0,0,0,0,0,0,0,-0.1555,-0.1557,-0.1653,-0.1655,-0.1656,-0.172,-0.1721,-0.1722,-0.178,-0.1781,-0.1782,-0.1783,-0.1869,-0.187,-0.1872,0,0,0,0,0,0,0,0,0,0,0,0,0,-0.1605,-0.1557,-0.1653,-0.1694,-0.1699,-0.172,-0.1721,-0.1722,-0.178,-0.1781,-0.1782,-0.1784,-0.1868,-0.187,-0.1872,-0.1859,0,0,-0.1879,-0.188,0,0,0,0,0,0,0,0,-0.1603,-0.1609,-0.1687,-0.1691,-0.1697,-0.1745,-0.1718,-0.177,-0.1779,-0.1746,-0.1783,-0.1784,-0.183,-0.1835,-0.1841,-0.1863,-0.1867,-0.1879,-0.1881,-0.1882,-0.1882,0,0,0,0,0,0,0,-0.1599,-0.1606,-0.1678,-0.1688,-0.1694,-0.1702,-0.1711,-0.1728,-0.1778,-0.1749,-0.1754,-0.1765,-0.1833,-0.1839,-0.1844,-0.1868,-0.1879,-0.1881,-0.1883,-0.1883,-0.1954,-0.1954,0,0,0,0,0,0,-0.1595,-0.1603,-0.1676,-0.168,-0.1654,-0.1703,-0.1712,-0.1726,-0.1778,-0.1788,-0.1764,-0.1768,-0.1835,-0.1841,-0.1847,-0.1916,-0.1882,-0.1884,-0.1885,-0.1953,-0.1954,-0.1954,0,0,0,0,0,0,-0.1593,-0.1601,-0.1673,-0.1644,-0.1655,-0.1704,-0.1719,-0.1727,-0.1768,-0.1789,-0.1799,-0.1801,-0.1836,-0.1844,-0.1888,-0.1917,-0.1885,-0.1887,-0.1952,-0.1953,-0.1954,-0.2002,0,0,0,0,0,0,-0.159,-0.16,-0.1621,-0.1644,-0.1656,-0.1706,-0.1718,-0.1727,-0.1772,-0.1778,-0.1823,-0.1831,-0.1838,-0.1885,-0.189,-0.192,-0.1888,-0.1952,-0.1953,-0.1954,-0.2,-0.2005,-0.2009,0,0,0,0,0,-0.1586,-0.1605,-0.1622,-0.1632,-0.168,-0.1707,-0.1715,-0.1751,-0.1773,-0.1793,-0.1823,-0.1831,-0.1895,-0.1887,-0.1893,-0.1924,-0.1951,-0.1952,-0.1954,-0.1998,-0.2004,-0.2009,0,0,0,0,0,0,-0.1576,-0.1613,-0.1632,-0.1664,-0.1695,-0.1719,-0.1744,-0.1768,-0.1807,-0.1822,-0.1841,-0.1851,-0.1899,-0.1899,-0.189,-0.1944,-0.1923,-0.1925,-0.1955,-0.196,-0.1964,-0.1977,-0.189,0,0,0,0,0,-0.1582,-0.1608,-0.1641,-0.167,-0.1686,-0.1721,-0.1743,-0.1768,-0.1799,-0.182,-0.1853,-0.188,-0.1901,-0.1923,-0.194,-0.1973,-0.1978,-0.1994,-0.1998,-0.2002,-0.2015,-0.204,-0.2049,-0.1958,-0.1958,-0.1958,0,0,-0.1587,-0.1612,-0.1629,-0.1671,-0.1697,-0.1726,-0.1738,-0.1779,-0.1814,-0.1821,-0.1886,-0.1901,-0.1912,-0.1949,-0.197,-0.1961,-0.203,-0.2003,-0.2007,-0.2018,-0.2043,-0.2051,-0.2059,-0.1959,-0.1959,-0.1959,0,0,-0.1598,-0.1632,-0.1655,-0.1682,-0.1728,-0.1749,-0.1768,-0.1812,-0.1846,-0.1894,-0.1909,-0.1946,-0.1982,-0.1999,-0.2008,-0.2046,-0.2051,-0.2049,-0.2088,-0.2113,-0.2121,-0.2128,-0.2146,-0.2154,-0.2053,-0.2053,-0.2053,0,-0.1606,-0.1641,-0.1666,-0.1695,-0.1726,-0.1763,-0.1798,-0.1829,-0.1886,-0.1919,-0.1924,-0.1991,-0.2005,-0.2049,-0.2062,-0.2059,-0.207,-0.207,-0.212,-0.2127,-0.2134,-0.2151,-0.2159,-0.2055,-0.2055,-0.2055,-0.2055,0,-0.1624,-0.1667,-0.1683,-0.1733,-0.1767,-0.1804,-0.1847,-0.1895,-0.1939,-0.197,-0.2036,-0.2052,-0.2093,-0.2099,-0.2096,-0.2149,-0.214,-0.2123,-0.2111,-0.2146,-0.2161,-0.2169,-0.2059,-0.2058,-0.2057,-0.2057,0,0,-0.1603,-0.1683,-0.1693,-0.1732,-0.1796,-0.1824,-0.1887,-0.1951,-0.2008,-0.2051,-0.2118,-0.2149,-0.2167,-0.2177,-0.218,-0.2203,-0.2256,-0.2189,-0.2189,-0.2213,-0.2313,-0.2204,-0.2202,-0.2251,-0.2252,-0.2254,-0.2305,0,-0.1617,-0.1679,-0.1718,-0.1788,-0.1825,-0.1884,-0.1939,-0.2003,-0.2062,-0.2133,-0.2158,-0.2213,-0.2192,-0.2221,-0.2242,-0.2257,-0.2281,-0.2244,-0.2269,-0.227,-0.2174,-0.2208,-0.2259,-0.2311,-0.2313,-0.2314,-0.2315,0,-0.1616,-0.1665,-0.1732,-0.1831,-0.1854,-0.1902,-0.201,-0.2063,-0.2156,-0.2202,-0.2257,-0.2285,-0.2333,-0.2304,-0.2351,-0.233,-0.2332,-0.2333,-0.2334,-0.2223,-0.2175,-0.2267,-0.2329,-0.2328,-0.2327,-0.2326,-0.2325,0,-0.1577,-0.1676,-0.1736,-0.1766,-0.1873,-0.1926,-0.1989,-0.2088,-0.215,-0.2247,-0.2306,-0.2356,-0.24,-0.2406,-0.2417,-0.2392,-0.2463,-0.2422,-0.2325,-0.2318,-0.2381,-0.2373,-0.2458,-0.2458,-0.2458,-0.2458,-0.2458,0,-0.1556,-0.1608,-0.1729,-0.1756,-0.1838,-0.1919,-0.2011,-0.2081,-0.2195,-0.2267,-0.2334,-0.2393,-0.2431,-0.2475,-0.2455,-0.2419,-0.2493,-0.2343,-0.2326,-0.2398,-0.2392,-0.2387,-0.2378,-0.246,-0.2459,-0.2459,-0.2459,0,-0.148,-0.1566,-0.1636,-0.1766,-0.1815,-0.1864,-0.201,-0.2067,-0.2191,-0.2291,-0.2326,-0.2442,-0.2488,-0.2518,-0.2546,-0.2465,-0.2442,-0.2413,-0.2508,-0.2494,-0.2269,-0.2262,-0.2292,-0.2289,-0.2286,-0.2284,-0.2282,0,-0.1438,-0.1469,-0.1615,-0.1656,-0.1715,-0.1815,-0.1876,-0.203,-0.2091,-0.2302,-0.2328,-0.2452,-0.2505,-0.2457,-0.2488,-0.245,-0.2419,-0.2388,-0.2303,-0.2272,-0.2254,-0.2251,-0.2248,-0.2277,-0.2276,-0.2276,-0.2275,0,-0.1342,-0.1407,-0.1457,-0.155,-0.1626,-0.1714,-0.1821,-0.1871,-0.2051,-0.2194,-0.2289,-0.2331,-0.2393,-0.2389,-0.239,-0.2353,-0.239,-0.2357,-0.2361,-0.2281,-0.2254,-0.2238,-0.2238,-0.2265,-0.2266,-0.2267,-0.2268,0,-0.1257,-0.1266,-0.1344,-0.1414,-0.1517,-0.1589,-0.1669,-0.1765,-0.1865,-0.211,-0.2139,-0.2272,-0.2392,-0.2342,-0.2337,-0.23,-0.2247,-0.2152,-0.2166,-0.2178,-0.2111,-0.2058,-0.2003,0,0,0,0,0,-0.1158,-0.1157,-0.1205,-0.1286,-0.139,-0.1459,-0.1618,-0.1705,-0.1905,-0.1928,-0.204,-0.2094,-0.2131,-0.2185,-0.2115,-0.2248,-0.2229,-0.2155,-0.2122,-0.221,-0.2221,-0.215,0,0,0,0,0,0,-0.1088,-0.1117,-0.1149,-0.1175,-0.1209,-0.1315,-0.142,-0.1555,-0.1582,-0.1789,-0.1809,-0.1962,-0.2002,-0.2137,-0.2068,-0.2082,-0.2019,-0.2237,-0.2231,-0.2203,-0.2214,-0.2223,-0.2154,0,0,0,0,0]},{"header":{"parameterUnit":"m.s-1","parameterCategory":2,"la1":30.2991,"la2":30.254,"lo1":-89.0895,"lo2":-89.0444,"dy":0.0017,"dx":0.0017,"nx":28,"ny":28,"refTime":"2023-10-11T09:00:00:Z","depth":"4","parameterNumber":3,"parameterNumberName":"V-component_of_CURRENTS"},"data":[0,0,0,0,0,0,0,0,0,0,0,0,0,0,0,0,0,0,0,0,0,0,0,0,0,0,0,0,0,0,0,0,0,0,0,0,0,0,0,0,0,0,0,0,0,0,0,0,0,0,0,0,0,0,0,0,0,0,0.0122,0.0124,0,0.0266,0.0268,0.027,0.0354,0.0354,0.0354,0.0354,0.046,0.0462,0.0465,0,0,0,0,0,0,0,0,0,0,0,0,0,0.0054,0.0054,0.0122,0.0124,0.0126,0.0266,0.0268,0.027,0.0354,0.0354,0.0354,0.0355,0.0459,0.0462,0.0465,0,0,0,0,0,0,0,0,0,0,0,0,0,0.013,0.0054,0.0122,0.0183,0.019,0.0265,0.0268,0.0271,0.0354,0.0354,0.0354,0.0355,0.0458,0.0462,0.0466,0.0482,0,0,0.0477,0.0479,0,0,0,0,0,0,0,0,0.0125,0.0132,0.0173,0.0179,0.0187,0.0291,0.0283,0.0339,0.0353,0.0293,0.0354,0.0355,0.0399,0.0408,0.0436,0.0487,0.0491,0.0478,0.048,0.0482,0.0483,0,0,0,0,0,0,0,0.012,0.0127,0.018,0.0174,0.0183,0.025,0.026,0.0295,0.0342,0.0298,0.0304,0.0318,0.0403,0.0432,0.0439,0.0493,0.0478,0.0481,0.0483,0.0485,0.055,0.055,0,0,0,0,0,0,0.0092,0.0121,0.0176,0.0184,0.0155,0.025,0.0262,0.0258,0.0343,0.0356,0.0318,0.0322,0.0425,0.0434,0.0443,0.0463,0.0482,0.0485,0.0488,0.0551,0.055,0.055,0,0,0,0,0,0,0.009,0.0095,0.017,0.0157,0.0171,0.025,0.0247,0.0261,0.0293,0.0358,0.0371,0.0335,0.0426,0.0437,0.0472,0.0468,0.0487,0.0491,0.0552,0.0551,0.055,0.0506,0,0,0,0,0,0,0.0087,0.0093,0.0083,0.0154,0.017,0.0209,0.0247,0.0264,0.03,0.0307,0.0376,0.0387,0.0427,0.0466,0.0476,0.0474,0.0494,0.0552,0.0551,0.055,0.0508,0.0504,0.05,0,0,0,0,0,0.0084,0.0071,0.0081,0.0088,0.0152,0.0209,0.0224,0.0283,0.03,0.0313,0.0357,0.0385,0.0466,0.0469,0.0481,0.0479,0.0553,0.0552,0.055,0.051,0.0505,0.05,0,0,0,0,0,0,0.0049,0.0081,0.0092,0.0092,0.0141,0.0223,0.0239,0.0277,0.0325,0.0327,0.0386,0.0399,0.0427,0.0454,0.0456,0.0492,0.0511,0.0512,0.0476,0.0471,0.0467,0.0456,0.0497,0,0,0,0,0,0.0029,0.002,0.0075,0.0076,0.0093,0.0162,0.0192,0.0231,0.0284,0.0306,0.0355,0.0396,0.0431,0.0451,0.0487,0.051,0.0535,0.0512,0.0508,0.0505,0.0502,0.0528,0.0526,0.0545,0.0545,0.0545,0,0,0.0018,0.0034,0.0031,0.0067,0.0107,0.0133,0.0181,0.022,0.0247,0.0307,0.0348,0.0386,0.0433,0.0462,0.0475,0.0484,0.0513,0.0503,0.05,0.0499,0.0527,0.0525,0.0523,0.0545,0.0545,0.0545,0,0,-0.0003,0.0,-0.0011,0.0021,0.0069,0.0111,0.0116,0.0189,0.0221,0.0262,0.0309,0.0342,0.0399,0.0437,0.0461,0.0452,0.049,0.0457,0.0431,0.0457,0.0456,0.0455,0.0488,0.049,0.0455,0.0455,0.0455,0,-0.0016,-0.0028,0.0001,0.0008,0.003,0.0094,0.0104,0.0149,0.0226,0.0244,0.0263,0.0347,0.0388,0.0425,0.0425,0.0444,0.0465,0.0449,0.0452,0.0452,0.0452,0.0485,0.0489,0.0453,0.0453,0.0453,0.0453,0,-0.0037,-0.0043,-0.0044,-0.0026,0.0004,0.0023,0.0081,0.0109,0.0147,0.0196,0.0238,0.03,0.0346,0.0364,0.0396,0.0415,0.0433,0.0444,0.0465,0.0447,0.0484,0.0488,0.0449,0.045,0.0451,0.0452,0,0,-0.0072,-0.0065,-0.0066,-0.0072,-0.0017,0.0002,0.0034,0.0079,0.009,0.016,0.0182,0.0251,0.0284,0.0311,0.0357,0.0384,0.0408,0.0409,0.0412,0.0443,0.0469,0.0467,0.0472,0.0419,0.0419,0.042,0.0496,0,-0.0096,-0.0118,-0.0093,-0.0098,-0.0102,-0.0046,-0.0027,0.0022,0.007,0.0105,0.0175,0.0211,0.0265,0.0279,0.0318,0.0385,0.0417,0.0387,0.0481,0.0484,0.0485,0.0476,0.0421,0.0499,0.05,0.0501,0.0502,0,-0.0122,-0.0139,-0.0161,-0.0161,-0.0157,-0.0145,-0.0118,-0.009,-0.0022,0.0012,0.0071,0.0133,0.02,0.0234,0.0348,0.0325,0.039,0.0443,0.0448,0.0463,0.0489,0.0521,0.051,0.0509,0.0509,0.0508,0.0508,0,-0.0176,-0.0184,-0.0215,-0.0209,-0.0192,-0.0194,-0.0181,-0.0124,-0.0114,-0.0047,-0.0033,0.0067,0.0104,0.0203,0.0333,0.0334,0.0452,0.0468,0.0532,0.0533,0.0533,0.0533,0.0536,0.0536,0.0536,0.0536,0.0535,0,-0.021,-0.0235,-0.0251,-0.0265,-0.0305,-0.0265,-0.0286,-0.0252,-0.0212,-0.0213,-0.0093,-0.0068,0.0093,0.0193,0.031,0.0438,0.0439,0.0527,0.0549,0.0513,0.051,0.0537,0.0536,0.0538,0.0538,0.0537,0.0537,0,-0.025,-0.0262,-0.0305,-0.0321,-0.0332,-0.0361,-0.0367,-0.0382,-0.0329,-0.0325,-0.031,-0.0173,-0.0049,0.0126,0.0289,0.0395,0.0525,0.0568,0.0523,0.0542,0.0596,0.0592,0.0642,0.0642,0.0643,0.0643,0.0644,0,-0.0267,-0.0296,-0.0358,-0.0401,-0.041,-0.045,-0.0482,-0.045,-0.0464,-0.0393,-0.0402,-0.0269,-0.0167,0.0065,0.0258,0.0492,0.0523,0.0604,0.0598,0.0588,0.0605,0.0601,0.0596,0.0644,0.0644,0.0644,0.0645,0,-0.0293,-0.0324,-0.0362,-0.0461,-0.0516,-0.059,-0.0629,-0.0646,-0.0614,-0.0559,-0.0494,-0.0335,-0.0188,0.003,0.0219,0.0388,0.0562,0.0609,0.0609,0.0604,0.0591,0.0607,0.0602,0.0646,0.0646,0.0646,0.0646,0,-0.0305,-0.0351,-0.0418,-0.0505,-0.0599,-0.0707,-0.0721,-0.0736,-0.0737,-0.0644,-0.0626,-0.0426,-0.0296,-0.0024,0.0151,0.0322,0.0365,0.0425,0.0436,0.0437,0.0364,0.0316,0.0301,0,0,0,0,0,-0.0299,-0.0364,-0.0456,-0.0578,-0.0688,-0.0758,-0.0809,-0.081,-0.0774,-0.0754,-0.0689,-0.0549,-0.026,-0.0117,0.0044,0.016,0.0397,0.0359,0.047,0.0654,0.0652,0.0602,0,0,0,0,0,0,-0.0299,-0.0377,-0.0453,-0.0628,-0.0739,-0.0872,-0.0922,-0.0907,-0.0881,-0.0803,-0.0661,-0.0523,-0.0254,-0.0387,0.0031,0.0095,0.0189,0.0512,0.0516,0.0655,0.0653,0.0652,0.06,0,0,0,0,0]}]]